Back to catalog

CZ-6A DEB

AliveSSO
NORAD 55868·DEBRIS·🇨🇳 China

Launched Nov 11, 2022 from Taiyuan Satellite Launch Center

Loading…

Next Passes (next 24 hours)

TLE

FreshSource: Space-Track

Epoch: Sep 14, 2026, 14:43 UTC

1 55868U 22151ZQ  26257.61334065  .00006208  00000-0  11724-2 0  9996
2 55868  98.5854 309.3364 0065223  37.5438 323.0291 14.63445221122040

Track CZ-6A DEB in real time with AllMySat

Download on the App Store